Location: Gleizolles
(44.4833°N, 6.7667°E)
Time: 23:44:25
(UTC+00:00)

Vanguard 2 Rocket - Pass Details

Date: 17 June 2024
Orbit: 555 x 3302 km, 32.9° (Epoch: 24 July)

Event Time Altitude Azimuth Distance (km) Brightness Sun altitude
Rises 07:58:16 0° 271° (W) 6,680 10.9 41.6°
Reaches altitude 10° 08:03:43 10° 265° (W) 5,272 10.4 42.6°
Maximum altitude 08:15:50 35° 208° (SSW) 2,627 9.5 44.7°
Drops below altitude 10° 08:23:23 10° 145° (SE) 3,258 10.4 46.0°
Sets 08:25:56 0° 136° (SE) 3,925 10.7 46.4°
